Temperature
17 17 17 17 20 22 22 23 23 23 23 23 22 23 24 24 24 24 21 20 19 19 18 17 16 16 15 15 15 15 14 14 14 14 14 14 13 13 13 13 13 13 13 13 13 13 12 13 13
17 17 17 19 21 22 23 23 23 23 23 21 21 22 23 23 22 20 20 20 19 18 17 17 16 16 15 15 15 15 14 14 14 14 13 13 13 13 13 12 12 12 12 12 12 12 12 12 13
16 16 18 21 21 22 23 23 23 23 21 21 22 22 23 23 21 20 20 20 19 18 17 16 16 16 15 15 15 14 14 14 14 13 13 13 12 12 12 12 12 12 12 12 12 12 12 12 13
16 17 19 21 21 22 23 23 23 22 21 21 22 23 22 20 19 19 20 20 18 17 16 16 16 15 15 15 14 14 14 14 14 13 13 12 12 12 12 12 12 12 12 12 12 12 12 12 13
16 19 20 20 21 22 23 22 21 22 23 22 22 23 22 20 20 20 20 19 18 17 16 15 16 15 15 14 14 14 14 14 13 13 12 12 12 12 12 12 12 12 12 12 12 12 12 12 12
17 19 20 20 21 22 22 21 21 22 22 22 21 22 22 20 20 20 19 19 17 17 16 15 15 15 14 14 14 14 14 13 13 13 12 12 12 12 12 12 12 12 12 12 12 12 12 12 12
18 19 20 21 21 21 22 21 21 22 23 22 21 22 22 20 20 19 19 17 16 16 16 15 15 14 14 14 14 14 14 13 13 12 12 12 12 12 12 12 12 11 11 11 11 11 12 12 12
17 19 19 20 20 21 21 20 20 21 22 21 20 22 23 20 20 19 18 17 16 16 15 15 14 14 14 14 14 14 14 13 13 12 12 12 12 12 11 11 11 11 11 11 11 11 12 12 12
16 18 19 20 20 21 21 21 20 19 20 20 20 20 20 20 19 19 18 17 16 16 15 15 14 14 14 14 14 14 13 13 13 12 12 12 11 11 11 11 11 11 11 11 11 11 11 12 12
16 17 19 20 20 21 20 20 20 20 20 21 20 19 19 19 19 18 18 18 17 17 16 15 15 14 14 14 13 13 13 13 12 12 12 11 11 11 11 11 11 11 11 11 11 11 11 11 11
17 18 19 19 18 19 19 19 19 20 21 21 21 20 19 18 18 18 18 18 18 17 16 16 15 15 14 14 13 13 13 13 12 12 12 11 11 11 11 11 11 11 11 10 11 11 11 10 10
17 17 18 18 17 17 18 19 19 19 20 20 20 19 19 18 18 18 18 18 18 17 17 17 16 15 15 14 14 13 13 13 13 13 12 12 11 11 11 11 11 10 10 10 10 10 10 10 10
16 17 17 17 16 16 17 18 19 19 19 19 18 18 18 18 18 18 18 18 17 18 17 17 16 16 15 14 14 14 14 13 13 13 12 12 12 12 11 11 11 11 10 11 10 10 10 10 10
16 16 16 16 16 16 17 18 18 19 19 18 18 18 18 18 18 18 18 18 18 18 18 17 17 16 16 15 15 14 14 14 13 13 13 12 12 12 12 11 11 11 11 10 10 10 10 10 10
14 15 16 17 16 16 16 17 18 19 18 18 19 19 18 18 18 18 19 19 18 18 18 17 17 16 16 16 15 14 14 14 13 13 13 13 12 12 12 11 11 11 11 10 10 10 10 10 10
15 15 16 17 17 16 16 17 20 19 18 19 19 19 19 18 18 18 18 19 18 18 18 17 17 17 16 16 15 15 14 14 14 13 13 13 13 12 12 11 11 11 11 10 10 10 10 10 10
15 15 16 17 17 16 16 17 19 18 18 19 19 19 19 19 18 18 18 18 19 18 18 17 17 17 16 16 15 15 15 14 14 14 13 13 13 12 12 12 11 11 11 10 10 10 10 10 10
15 16 16 16 17 16 16 17 18 18 18 18 19 19 19 18 18 18 18 18 18 18 18 17 17 17 16 15 15 14 14 14 14 14 14 13 13 13 12 12 11 11 10 10 10 10 10 10 9
15 15 15 16 16 15 16 16 18 18 18 18 18 18 19 18 18 18 18 18 18 18 18 17 17 17 16 15 15 14 15 15 14 14 14 14 13 13 12 12 11 11 11 11 10 10 10 10 9
14 14 14 15 15 15 15 16 17 18 18 18 18 18 18 18 18 18 18 17 18 18 18 18 17 17 16 16 16 16 16 15 15 15 14 14 14 13 13 12 12 12 11 11 10 10 10 9 9
13 13 14 14 14 15 14 16 17 18 18 17 17 17 17 17 18 17 17 17 17 17 17 17 17 17 17 17 16 15 14 14 14 14 14 14 14 14 13 13 12 12 12 11 11 10 10 10 10
13 14 13 13 13 14 14 15 17 18 18 18 18 18 17 17 17 17 17 17 17 17 17 17 17 17 17 16 15 15 15 15 15 15 15 15 15 14 14 13 13 12 12 12 11 11 11 10 10
13 13 13 13 13 13 14 13 16 17 17 18 18 18 17 17 16 16 17 17 17 17 17 17 17 17 16 16 15 15 15 15 15 15 15 14 14 14 14 14 13 13 12 12 11 11 11 10 10
12 12 12 12 12 12 14 14 16 17 17 18 18 18 17 16 16 16 16 16 16 17 17 17 17 17 16 16 15 15 15 15 14 14 14 14 14 14 14 14 14 13 13 12 12 11 11 11 10
12 12 12 12 12 13 14 13 15 17 17 17 17 16 16 16 16 16 16 16 16 16 17 16 16 17 16 16 16 16 16 15 15 15 14 14 14 14 14 14 14 13 13 13 12 12 11 11 10
12 12 12 12 13 14 14 13 16 17 16 15 15 15 15 15 15 15 15 15 16 16 16 16 16 16 16 16 16 16 16 15 15 15 14 14 14 14 15 15 14 14 13 13 12 12 11 11 11
11 12 12 11 12 12 14 14 16 16 15 15 15 14 14 14 14 15 15 15 15 15 15 15 16 16 16 16 16 15 15 15 15 15 14 14 14 14 14 14 14 13 13 12 12 11 11 11 11
11 11 11 11 11 12 14 14 15 15 15 15 15 15 14 13 13 13 14 14 14 15 15 15 15 15 15 15 15 15 15 15 15 15 14 14 14 14 13 13 13 13 13 12 12 11 11 11 11
10 10 11 11 11 11 13 15 15 15 15 14 14 14 13 12 12 13 13 13 14 14 14 14 15 15 15 15 15 15 15 15 14 14 14 14 14 13 13 13 13 13 13 12 12 11 11 11 10
10 11 11 10 10 11 12 13 15 14 14 13 13 13 12 12 12 12 12 12 13 13 13 13 14 14 14 14 14 14 14 14 14 14 14 14 13 13 13 13 12 12 12 12 12 11 11 11 10
Wind_Speed
6 7 5 4 5 7 11 8 7 5 5 4 4 5 6 6 4 2 3 9 11 16 19 21 20 20 19 18 17 16 15 15 14 13 13 12 12 12 12 12 12 12 12 12 13 13 13 13 13
7 6 5 5 7 10 10 10 10 8 3 3 4 6 6 6 3 0 4 10 12 16 18 20 21 20 20 19 18 17 16 15 14 14 13 12 12 12 12 12 12 12 12 12 12 12 12 12 12
7 6 5 5 9 12 8 6 8 7 5 5 4 5 5 3 3 3 5 12 13 16 17 18 21 21 20 19 18 17 16 15 14 14 13 13 12 12 12 12 12 12 11 11 11 11 11 11 11
5 5 5 9 15 13 10 4 3 5 5 6 6 5 4 1 1 3 8 13 14 15 17 18 21 21 20 19 18 17 16 16 15 14 14 13 13 12 12 12 11 11 11 11 10 10 10 10 10
5 5 9 13 16 13 11 8 5 7 6 6 7 6 5 3 2 5 10 13 15 15 16 19 21 21 20 19 19 18 17 16 15 14 14 13 13 13 12 12 11 11 10 10 9 9 9 9 9
6 6 10 16 16 13 11 10 9 10 8 6 7 7 4 4 5 7 11 13 14 14 15 17 20 20 20 19 19 18 17 16 15 14 14 14 13 12 12 11 11 10 10 9 9 9 8 8 8
8 8 14 16 15 13 11 9 11 12 11 9 6 6 4 6 6 8 11 12 13 14 14 15 19 19 19 19 19 19 18 17 16 15 14 14 13 13 12 11 10 10 9 9 9 8 8 8 7
6 6 12 14 15 14 9 8 9 12 11 5 6 8 5 5 7 9 10 11 12 13 14 15 16 18 18 19 19 19 18 17 16 15 14 14 13 12 11 11 11 10 9 9 8 8 7 7 7
5 9 15 15 13 10 7 9 8 7 9 8 8 7 3 6 9 11 10 11 13 14 14 15 15 16 17 17 18 19 18 17 16 15 15 15 13 13 12 11 11 10 9 9 9 8 7 7 7
8 13 18 11 11 10 8 9 8 8 11 11 9 8 4 8 11 14 15 16 17 18 17 16 16 16 16 15 16 16 16 16 16 15 16 14 12 11 10 11 10 10 9 9 8 8 7 6 6
9 14 15 13 12 11 11 10 9 10 12 13 12 10 9 11 13 15 16 17 18 18 18 17 17 16 15 13 14 12 13 14 15 16 16 14 12 10 10 10 11 10 10 9 9 9 7 6 5
11 14 14 13 11 11 13 12 12 14 14 10 10 8 9 13 15 17 17 17 17 17 19 18 18 16 16 15 13 13 12 12 12 15 16 14 10 10 10 9 10 10 9 8 8 7 7 6 6
14 14 14 14 13 14 15 17 17 18 17 13 11 10 12 14 16 16 16 16 16 18 19 19 19 19 17 15 13 13 13 13 14 14 16 16 11 10 10 9 9 10 9 9 8 8 7 7 6
10 12 13 13 14 12 15 19 17 19 15 14 14 15 15 16 16 16 16 17 18 19 19 19 20 20 19 16 15 14 14 14 14 14 16 17 14 12 11 10 10 10 10 9 8 8 7 6 6
7 11 13 13 12 10 12 19 20 19 16 17 17 16 16 16 16 17 18 18 18 19 19 20 20 20 20 19 17 14 14 15 14 14 17 18 16 14 12 10 10 10 11 10 9 9 7 6 6
7 9 12 10 10 10 10 19 17 14 16 19 19 18 16 16 17 17 17 17 17 17 18 20 17 20 21 20 17 14 15 15 14 15 16 19 19 17 14 11 11 12 11 10 8 8 8 7 7
8 11 15 12 10 9 12 18 16 14 15 18 19 18 17 17 17 16 17 17 17 17 18 19 20 21 21 20 17 15 15 15 15 15 15 18 20 19 15 12 12 13 10 10 9 9 9 8 8
11 13 15 15 9 11 16 21 19 15 15 17 17 17 16 17 17 16 16 16 16 16 17 18 19 21 20 17 15 13 15 14 14 15 16 19 19 20 17 13 14 13 11 10 11 11 10 8 7
12 14 17 16 11 11 18 22 22 19 17 17 16 16 16 16 17 15 14 15 15 15 16 18 19 20 18 15 16 15 16 15 15 15 18 20 20 20 18 13 14 14 13 13 13 11 11 10 7
14 16 17 14 10 11 18 24 22 20 19 17 17 17 17 17 15 14 13 13 14 15 16 18 19 19 19 17 17 16 16 15 15 14 17 20 20 20 17 18 15 15 13 15 15 13 10 9 9
15 16 15 14 13 12 15 19 19 18 17 16 16 16 16 16 16 14 13 13 13 14 16 16 19 20 21 20 15 13 13 12 13 16 16 19 21 21 20 20 17 16 15 14 16 15 15 11 11
14 12 13 14 12 9 8 13 16 13 14 14 14 14 14 14 14 13 12 12 13 14 13 16 18 19 20 20 18 19 17 17 19 17 16 18 21 22 21 21 20 18 16 16 16 16 14 14 11
10 9 12 14 13 14 13 12 14 10 14 13 13 13 13 12 12 13 12 12 12 12 12 14 16 18 19 20 21 21 20 19 16 16 18 18 19 21 21 21 20 19 17 18 18 17 17 14 14
7 7 9 10 9 13 15 13 14 11 12 12 11 10 11 11 11 11 11 10 10 9 9 11 14 16 18 20 21 22 24 22 20 19 18 17 15 17 22 21 20 20 18 18 18 18 19 16 16
6 5 5 6 8 10 7 11 13 10 9 11 11 10 9 9 9 9 9 9 8 8 9 10 13 14 16 19 20 21 24 24 23 21 19 18 15 16 20 20 20 19 19 19 18 18 18 19 18
9 9 8 7 9 10 7 12 10 7 7 8 8 8 8 8 8 8 8 8 8 8 9 10 12 13 15 17 19 19 22 19 18 20 18 18 16 17 19 21 20 21 20 19 18 16 17 16 18
7 9 9 9 11 12 10 11 12 8 6 6 6 7 8 8 9 9 8 7 7 8 9 9 11 12 13 15 17 18 19 20 20 19 19 16 16 15 18 19 20 20 20 20 18 16 18 17 17
9 6 5 7 7 11 13 15 11 8 7 6 7 7 8 9 9 9 8 7 6 7 7 8 9 11 12 13 14 13 17 18 19 18 19 18 18 17 17 18 19 19 19 19 18 16 17 17 16
8 8 8 8 8 8 12 10 4 6 6 7 8 8 9 10 10 10 9 8 6 6 6 5 6 8 10 11 12 13 14 16 16 17 18 17 17 17 18 18 18 19 19 19 18 18 17 18 17
11 12 12 10 11 11 13 13 3 5 6 7 8 9 10 11 10 10 9 8 7 7 6 6 5 6 8 9 10 12 13 13 15 16 17 17 17 17 17 17 18 18 18 18 18 18 18 18 18
Wind_Direction
178 176 183 200 218 227 234 224 222 211 214 215 206 212 232 232 240 305 82 155 155 159 163 167 170 168 166 163 160 156 152 150 147 143 140 135 130 129 126 122 119 115 111 107 106 104 103 101 97
178 178 196 216 230 227 229 225 224 224 206 174 203 222 234 237 255 1 141 160 162 161 165 169 169 170 167 165 163 160 157 155 153 149 145 141 136 134 129 125 122 119 114 109 106 105 104 102 99
176 200 215 217 229 231 231 220 230 226 215 212 212 227 244 238 201 172 146 160 164 165 169 167 168 170 168 167 166 164 162 160 158 155 151 146 143 140 134 130 127 122 118 114 111 109 108 106 103
184 200 222 231 231 232 240 236 219 215 210 221 231 227 215 230 193 141 146 163 166 168 170 167 171 171 170 169 169 168 166 164 161 160 157 154 151 146 141 135 132 129 125 121 118 116 114 110 108
209 218 223 231 237 236 240 254 245 232 219 211 224 241 226 173 152 147 160 168 170 170 172 169 173 173 173 173 172 171 170 168 166 164 163 162 158 152 146 142 140 136 131 128 125 123 120 115 112
204 220 228 233 235 237 240 240 241 242 237 224 227 242 231 156 168 164 167 173 174 172 174 171 175 177 177 177 175 174 174 173 171 170 169 167 163 158 155 151 148 146 141 136 134 132 129 125 119
220 221 235 240 243 240 238 231 238 242 242 233 226 237 219 179 168 166 171 177 177 177 178 177 178 181 181 179 177 177 177 177 176 175 173 169 165 164 161 158 156 154 150 146 144 141 139 134 127
228 231 239 238 242 244 240 235 244 245 251 246 228 238 233 167 154 165 172 180 182 184 186 185 184 184 184 183 181 180 179 180 179 177 173 166 165 167 164 166 163 163 159 157 153 148 148 141 133
217 232 236 233 239 248 242 243 243 245 248 239 235 257 299 141 156 165 174 186 190 193 193 192 190 188 188 186 182 182 181 182 179 178 171 170 177 175 173 171 164 169 168 166 163 160 155 150 143
211 232 238 241 244 256 256 253 251 237 239 239 237 236 206 175 179 184 189 193 196 197 197 195 194 192 190 187 184 188 187 185 188 186 181 186 185 181 176 158 167 175 175 173 168 162 166 182 168
217 236 245 246 251 261 260 259 253 247 248 246 245 235 203 200 203 205 205 204 202 200 198 199 196 195 192 190 189 190 190 190 193 191 187 187 186 181 181 177 176 182 183 184 173 182 188 191 184
232 240 246 251 249 257 261 260 256 248 254 269 272 256 217 212 213 215 215 213 207 204 202 202 199 198 196 195 193 192 192 192 192 192 191 189 189 191 188 189 187 188 190 191 193 199 193 197 198
237 245 247 253 254 258 262 258 260 259 261 268 270 251 236 231 228 226 225 222 213 209 206 204 201 200 199 199 198 197 197 195 194 193 195 195 194 194 192 194 192 196 194 195 200 202 199 203 205
246 253 256 256 255 252 258 262 257 258 261 263 260 257 249 243 238 235 228 224 218 213 209 205 204 203 201 201 203 200 200 199 198 196 199 199 200 198 196 197 197 200 201 202 205 207 207 211 212
256 260 260 247 246 247 259 262 248 254 259 262 260 259 255 250 244 237 232 227 222 218 212 207 206 205 204 204 207 205 202 200 201 200 201 201 203 202 200 202 201 203 203 204 208 210 214 217 217
243 249 254 246 242 240 242 261 258 255 256 259 261 260 256 252 247 242 236 231 227 221 215 210 205 207 207 206 208 208 205 203 203 202 203 204 205 204 203 205 207 204 202 204 207 210 212 215 219
235 247 256 261 241 243 241 264 270 263 259 261 261 261 258 256 251 246 240 234 228 223 217 212 208 208 208 208 208 210 207 206 206 204 205 205 206 205 206 208 208 205 205 207 209 212 215 218 221
246 254 258 260 260 255 257 263 270 268 264 266 265 262 260 258 256 251 244 236 230 225 219 214 210 210 208 207 209 212 212 210 209 207 207 206 206 206 208 210 210 206 207 210 211 213 216 223 222
257 261 265 268 273 269 266 270 272 269 265 265 264 264 263 262 260 255 247 237 230 224 219 215 211 209 206 203 204 207 210 209 209 210 210 208 208 206 207 209 210 208 211 212 213 214 217 219 217
252 260 268 276 269 267 273 274 271 264 260 261 263 262 262 265 265 258 247 237 229 224 219 216 213 209 207 206 205 208 210 209 210 210 212 211 210 209 207 210 210 209 213 215 215 212 214 215 207
250 254 264 276 289 270 278 276 263 257 253 253 255 256 260 263 264 261 251 241 231 227 222 218 214 212 209 208 207 208 211 210 210 212 212 212 211 211 209 211 212 211 212 215 214 210 212 214 209
257 256 263 271 278 272 269 281 273 262 254 251 253 254 258 260 260 259 256 248 238 232 226 222 219 215 211 207 207 206 208 209 211 210 211 211 211 211 211 212 213 213 213 215 215 213 214 215 214
255 266 263 265 266 271 257 262 272 260 254 255 257 258 259 261 260 258 258 252 245 238 229 223 221 218 213 209 209 211 215 216 215 212 212 212 211 213 212 212 212 214 214 216 215 212 213 214 217
255 270 267 256 255 259 251 246 270 257 256 268 270 269 268 267 264 262 261 258 252 244 233 226 223 221 216 213 213 215 216 216 216 213 212 212 212 212 213 213 213 214 214 215 215 214 213 214 218
230 253 262 249 236 251 246 243 257 268 263 267 276 284 286 280 274 271 270 263 258 249 238 230 226 224 220 217 217 219 220 218 218 217 215 213 212 211 212 211 213 214 215 214 214 214 215 215 217
227 228 239 260 263 272 249 243 257 279 278 273 274 282 289 292 291 287 285 278 268 257 245 236 231 229 224 221 222 223 222 220 222 221 218 216 216 215 212 210 213 215 214 213 213 214 216 216 218
234 230 244 265 273 274 259 259 270 270 267 270 279 292 295 299 304 300 296 290 286 276 259 244 238 235 230 227 225 225 224 221 222 222 221 221 220 217 213 211 212 215 214 212 211 214 215 215 217
240 246 233 236 258 261 262 259 261 268 267 275 289 304 311 320 324 327 317 310 307 302 287 261 247 243 238 232 229 229 228 226 224 222 221 220 219 217 214 212 212 213 213 212 211 214 216 214 216
227 229 237 246 250 261 270 265 263 259 272 287 296 307 317 326 328 328 327 326 327 324 315 298 271 255 247 239 235 233 233 230 227 224 224 222 220 217 215 213 211 212 212 211 212 213 212 214 215
245 239 234 244 251 252 265 268 278 268 284 298 309 318 320 324 326 324 325 326 328 324 316 308 298 277 259 247 240 238 236 233 230 228 225 222 221 219 217 215 213 213 212 211 211 212 212 213 215
Height
1516 1517 1519 1521 1519 1513 1506 1500 1500 1500 1501 1502 1502 1503 1500 1499 1500 1503 1501 1499 1500 1502 1504 1506 1509 1511 1513 1515 1517 1519 1520 1521 1522 1524 1524 1525 1526 1526 1527 1528 1528 1528 1529 1529 1529 1529 1529 1529 1529
1515 1517 1520 1519 1512 1509 1502 1497 1499 1498 1500 1502 1503 1502 1501 1499 1500 1500 1498 1498 1500 1502 1504 1506 1508 1511 1513 1515 1517 1518 1520 1521 1522 1523 1524 1525 1526 1526 1527 1528 1528 1529 1529 1529 1529 1530 1530 1530 1530
1515 1516 1518 1512 1506 1501 1497 1495 1496 1498 1500 1501 1501 1501 1500 1498 1499 1499 1498 1498 1499 1501 1504 1506 1508 1510 1512 1514 1516 1518 1519 1520 1522 1523 1524 1524 1525 1526 1527 1527 1528 1528 1529 1529 1530 1530 1530 1530 1531
1515 1516 1515 1508 1501 1496 1494 1494 1497 1498 1500 1500 1500 1498 1498 1498 1498 1497 1497 1498 1499 1501 1503 1505 1507 1510 1512 1514 1516 1517 1519 1520 1521 1522 1523 1524 1525 1526 1527 1527 1528 1528 1529 1529 1530 1531 1531 1531 1531
1513 1513 1508 1502 1497 1493 1494 1496 1498 1496 1496 1497 1498 1495 1496 1496 1495 1495 1496 1497 1499 1501 1503 1505 1507 1509 1511 1513 1515 1517 1518 1519 1521 1522 1523 1524 1525 1526 1526 1527 1528 1528 1529 1530 1530 1531 1531 1531 1532
1512 1508 1502 1496 1492 1492 1494 1496 1497 1495 1494 1496 1497 1495 1494 1494 1494 1495 1495 1497 1499 1500 1502 1504 1506 1508 1510 1512 1514 1516 1517 1519 1520 1521 1522 1523 1524 1525 1526 1527 1528 1528 1529 1529 1530 1531 1531 1532 1532
1508 1503 1497 1492 1491 1490 1492 1495 1495 1493 1492 1493 1494 1493 1492 1493 1493 1493 1495 1496 1498 1500 1501 1503 1505 1507 1509 1511 1513 1515 1516 1518 1519 1520 1522 1523 1524 1525 1526 1527 1527 1528 1529 1529 1530 1530 1531 1531 1532
1505 1502 1495 1492 1491 1489 1491 1493 1493 1492 1491 1492 1493 1491 1489 1491 1491 1492 1493 1495 1496 1498 1500 1502 1504 1506 1508 1510 1512 1513 1515 1517 1518 1520 1521 1522 1523 1524 1525 1526 1526 1527 1528 1529 1530 1530 1531 1531 1531
1503 1501 1491 1489 1490 1488 1489 1490 1491 1491 1491 1490 1490 1489 1489 1488 1489 1490 1491 1492 1494 1495 1497 1499 1502 1504 1506 1508 1510 1512 1514 1515 1517 1518 1519 1521 1523 1524 1524 1525 1526 1527 1527 1528 1529 1530 1530 1531 1531
1499 1494 1486 1487 1488 1487 1488 1489 1489 1488 1487 1486 1487 1486 1486 1486 1486 1487 1487 1488 1490 1491 1493 1496 1499 1501 1503 1506 1508 1510 1512 1513 1515 1517 1518 1520 1521 1523 1523 1524 1525 1526 1527 1528 1528 1529 1530 1530 1531
1493 1488 1486 1488 1489 1489 1487 1487 1487 1485 1482 1482 1482 1483 1483 1483 1484 1484 1485 1485 1487 1489 1490 1493 1495 1497 1500 1502 1505 1507 1509 1511 1513 1515 1516 1518 1519 1520 1521 1522 1523 1524 1526 1527 1527 1528 1529 1530 1530
1490 1486 1486 1486 1488 1488 1486 1485 1483 1482 1480 1481 1481 1481 1480 1480 1480 1481 1482 1483 1484 1485 1487 1489 1491 1494 1496 1498 1501 1503 1505 1507 1509 1511 1513 1515 1516 1518 1519 1520 1521 1523 1524 1525 1526 1527 1528 1528 1529
1486 1484 1485 1485 1486 1486 1484 1482 1480 1477 1478 1478 1478 1477 1477 1477 1477 1477 1478 1480 1480 1481 1483 1485 1487 1489 1492 1494 1496 1499 1501 1503 1506 1508 1510 1511 1513 1515 1516 1518 1519 1520 1522 1523 1524 1525 1526 1527 1527
1484 1483 1482 1482 1482 1482 1481 1477 1477 1472 1475 1475 1474 1473 1473 1472 1472 1473 1473 1474 1475 1476 1478 1480 1482 1485 1487 1489 1491 1494 1497 1499 1502 1504 1506 1508 1510 1512 1513 1515 1516 1518 1519 1521 1522 1523 1524 1525 1525
1484 1483 1478 1477 1478 1477 1479 1471 1468 1468 1470 1469 1468 1468 1467 1467 1467 1467 1467 1468 1470 1471 1473 1475 1477 1480 1482 1485 1487 1490 1492 1495 1497 1499 1502 1504 1506 1508 1510 1512 1513 1515 1516 1518 1519 1521 1521 1522 1523
1482 1480 1476 1471 1473 1473 1477 1464 1460 1463 1464 1462 1462 1461 1461 1461 1461 1461 1462 1463 1464 1466 1467 1469 1471 1474 1477 1479 1482 1485 1487 1490 1492 1495 1497 1499 1502 1504 1506 1508 1510 1511 1513 1514 1516 1517 1518 1519 1520
1478 1475 1471 1468 1469 1469 1470 1461 1456 1458 1458 1456 1456 1455 1455 1455 1455 1456 1456 1457 1458 1460 1461 1463 1465 1467 1470 1474 1477 1480 1482 1484 1487 1489 1492 1494 1497 1499 1501 1503 1506 1508 1509 1511 1512 1513 1515 1516 1517
1472 1469 1467 1466 1463 1466 1463 1456 1452 1453 1453 1451 1450 1449 1449 1448 1448 1449 1450 1450 1451 1453 1455 1456 1458 1461 1464 1468 1471 1473 1476 1478 1481 1483 1486 1489 1491 1494 1497 1499 1501 1503 1505 1506 1508 1509 1511 1512 1513
1470 1470 1467 1462 1462 1465 1458 1452 1447 1447 1447 1446 1445 1444 1443 1442 1442 1443 1443 1444 1445 1446 1447 1449 1451 1454 1457 1460 1462 1465 1467 1471 1474 1476 1480 1483 1486 1488 1491 1493 1496 1498 1499 1501 1503 1505 1507 1508 1510
1471 1470 1465 1460 1461 1461 1455 1447 1441 1440 1440 1440 1439 1438 1437 1436 1436 1436 1436 1437 1438 1439 1440 1442 1444 1446 1448 1451 1455 1458 1461 1464 1467 1470 1473 1476 1479 1482 1484 1487 1489 1492 1494 1496 1498 1500 1501 1503 1505
1468 1467 1464 1463 1460 1457 1455 1441 1432 1430 1432 1433 1432 1431 1430 1430 1430 1430 1430 1431 1431 1432 1433 1435 1437 1439 1441 1444 1448 1451 1455 1457 1460 1462 1465 1468 1472 1475 1477 1480 1483 1485 1488 1489 1491 1493 1495 1497 1499
1465 1463 1464 1463 1462 1455 1454 1443 1424 1423 1424 1424 1424 1424 1424 1424 1424 1424 1424 1425 1425 1426 1427 1428 1430 1432 1434 1437 1440 1442 1444 1446 1449 1453 1457 1460 1464 1467 1470 1473 1476 1478 1480 1483 1485 1487 1489 1491 1493
1462 1462 1462 1461 1460 1457 1450 1449 1422 1419 1418 1416 1417 1417 1418 1418 1418 1418 1418 1419 1419 1420 1421 1422 1423 1425 1427 1429 1432 1434 1436 1439 1444 1447 1450 1453 1456 1459 1462 1465 1468 1470 1473 1475 1478 1480 1482 1484 1486
1462 1462 1460 1458 1458 1454 1441 1442 1420 1412 1412 1411 1411 1412 1413 1413 1413 1413 1413 1413 1413 1414 1414 1415 1416 1418 1420 1422 1424 1426 1428 1432 1435 1438 1441 1444 1447 1450 1453 1456 1459 1462 1464 1467 1470 1472 1474 1477 1479
1461 1462 1459 1454 1450 1439 1434 1435 1417 1408 1408 1409 1410 1410 1409 1409 1408 1408 1407 1407 1407 1407 1408 1408 1409 1410 1412 1414 1416 1418 1421 1424 1426 1429 1432 1436 1438 1440 1443 1447 1450 1453 1456 1459 1462 1464 1466 1469 1471
1456 1457 1458 1453 1440 1429 1430 1427 1410 1407 1408 1409 1409 1408 1407 1406 1404 1403 1402 1402 1402 1402 1402 1402 1403 1404 1405 1407 1409 1411 1413 1416 1419 1422 1425 1427 1430 1432 1435 1438 1441 1444 1448 1450 1453 1456 1458 1460 1462
1454 1453 1451 1452 1445 1442 1425 1415 1407 1406 1407 1407 1406 1405 1404 1403 1401 1399 1398 1398 1397 1397 1397 1397 1397 1398 1399 1400 1402 1404 1406 1408 1411 1414 1417 1419 1422 1425 1428 1430 1433 1436 1439 1442 1445 1447 1449 1452 1454
1453 1451 1452 1451 1446 1435 1418 1411 1407 1402 1403 1403 1403 1403 1402 1400 1398 1396 1395 1394 1393 1392 1392 1392 1393 1393 1393 1394 1395 1397 1399 1401 1403 1406 1408 1411 1414 1417 1420 1422 1425 1428 1431 1434 1436 1438 1441 1444 1445
1450 1451 1448 1445 1441 1434 1420 1406 1398 1400 1402 1402 1402 1402 1401 1399 1397 1395 1392 1390 1389 1388 1388 1388 1388 1388 1388 1388 1389 1391 1392 1394 1397 1398 1400 1403 1406 1409 1412 1414 1417 1420 1422 1425 1428 1430 1433 1435 1437
1445 1443 1444 1446 1439 1432 1422 1407 1400 1402 1402 1402 1402 1401 1400 1398 1395 1393 1391 1388 1386 1385 1384 1384 1383 1383 1383 1383 1383 1385 1386 1388 1390 1391 1393 1395 1398 1401 1404 1406 1409 1411 1414 1417 1419 1422 1424 1427 1429